WGS F1 (USA 195)

Last updated on Thu Oct 30 2025 00:02:47 GMT+0000 (Coordinated Universal Time)

1 32258U 07046A 25302.46267100 -.00000257 00000+0 00000+0 0 9998 2 32258 0.1421 86.9717 0000693 105.1945 329.9605 1.00272083 50025
UTC large
Height (km)
Speed (km/s)
/
Latitude / Longitude
Inclination (degrees)
Orbital Period (minutes)
Azimuth
Elevation
Range (km)
Doppler Factor

Next 0 passes for location: London (51.5072 / 0.1276)

Sorry there are no passes over London.